Find INTELSAT III F-4

NORAD ID: 3947 Int'l Des: 1969-045 Owner: INTEL Country: I-INT operational
HEOCIRCULAR

Current View

Loading 3D Globe...

About INTELSAT III F-4

Description loading...

Upcoming Passes

Passes for default location (London). Set your location on the main map for personalized predictions.

Altitude History

Loading altitude history...

Two-Line Element Set

1 3947U 69045A 26151.51093815 -.00000077 00000-0 00000+0 0 9998
2 3947 3.7873 288.6037 0024051 78.8306 115.0183 0.90044625 65810
Epoch: May 31, 2026 • Age: 6 hours

Current Status

Altitude 39022.5 km
Velocity 2.96 km/s
Sub-Earth Point -3.75°S, 39.49°E
Type communications

Most Searched